Regional Weather Roundup
Issued by NWS

Home | Current Version | Previous Version | Text Only | Print | Product List | Glossary Off
Versions: 1 2 3 4 5 6 7 8 9 10 11 12 13 14 15 16 17 18 19 20 21 22 23 24 25 26 27 28 29 30 31 32 33 34 35 36 37 38 39 40 41 42 43 44 45 46 47 48 49 50

000
ASUS43 KLMK 270910
RWRKY
KENTUCKY REGIONAL WEATHER ROUNDUP
NATIONAL WEATHER SERVICE LOUISVILLE KY
500 AM EDT THU APR 27 2017

NOTE "FAIR" INDICATES FEW OR NO CLOUDS BELOW 12,000 FEET
WITH NO SIGNIFICANT WEATHER AND/OR OBSTRUCTIONS TO VISIBILITY.

KYZ001>023-026-027-061>063-070>075-271000-
WESTERN AND SOUTH CENTRAL KENTUCKY

CITY           SKY/WX    TMP DP  RH WIND       PRES   REMARKS
PADUCAH        CLOUDY    53  49  86 W12       29.58R
HENDERSON      CLOUDY    62  57  83 S15       29.53R
OWENSBORO      CLOUDY    62  58  86 S12       29.54R
HOPKINSVILLE   CLOUDY    61  61 100 S8        29.58R
BOWLING GREEN  CLOUDY    64  62  93 S8        29.57F
GLASGOW        LGT RAIN N/A N/A N/A E16       29.54F
$$

KYZ024-025-028>034-038-045-046-053-271000-
NORTH CENTRAL KENTUCKY

CITY           SKY/WX    TMP DP  RH WIND       PRES   REMARKS
LOUISVILLE/SDF RAIN      64  57  78 S12G26    29.57F
LOUISVILLE/LOU LGT RAIN  63  57  81 SE10      29.56F
FORT KNOX      CLOUDY    63  57  82 SW9       29.54R
$$

KYZ035>037-039>044-047>052-055>060-089>105-271000-
NORTHEAST KENTUCKY

CITY           SKY/WX    TMP DP  RH WIND       PRES   REMARKS
LEXINGTON      CLOUDY    70  56  61 S10       29.63S
COVINGTON      CLOUDY    68  56  65 W17G25    29.60R
FRANKFORT      LGT RAIN  68  52  56 W10G26    29.61R
$$

KYZ054-064>069-076>088-106>120-271000-
SOUTHEAST KENTUCKY

CITY           SKY/WX    TMP DP  RH WIND       PRES   REMARKS
JACKSON        CLOUDY    65  56  72 CALM      29.70R
LONDON         CLOUDY    69  53  56 SW3       29.69R
SOMERSET       CLOUDY    68  54  60 S9        29.68R
MIDDLESBORO    MOCLDY    69  56  63 S9        29.70F
MONTICELLO     CLOUDY    70  57  63 S12G26    29.68R
$$




USA.gov is the U.S. government's official web portal to all federal, state and local government web resources and services.